TimeIST,TemperatureF,Dew PointF,Humidity,Sea Level PressureIn,VisibilityMPH,Wind Direction,Wind SpeedMPH,Gust SpeedMPH,PrecipitationIn,Events,Conditions,WindDirDegrees,DateUTC
7:00 AM,53,53,100,29.93,0,SE,6.7,,,Fog,Heavy Fog,130,2013-09-27 06:00:00
7:00 AM,53.6,53.6,100,29.92,0.2,SE,6.9,-,N/A,Fog,Fog,130,2013-09-27 06:00:00
7:30 AM,53.6,53.6,100,29.92,0.2,SE,8.1,-,N/A,Fog,Fog,130,2013-09-27 06:30:00
8:00 AM,53.6,53.6,100,29.92,0.1,SE,6.9,-,N/A,Fog,Fog,130,2013-09-27 07:00:00
8:30 AM,51.8,51.8,100,29.92,0.1,SE,6.9,-,N/A,Fog,Fog,130,2013-09-27 07:30:00
9:00 AM,53.6,53.6,100,29.92,0.1,SE,6.9,-,N/A,Fog,Fog,140,2013-09-27 08:00:00
9:30 AM,53.6,53.6,100,29.92,0.1,SE,6.9,-,N/A,Fog,Fog,140,2013-09-27 08:30:00
10:00 AM,53.6,53.6,100,29.92,0.1,ESE,8.1,-,N/A,Fog,Fog,120,2013-09-27 09:00:00
10:30 AM,53.6,53.6,100,29.92,0.1,ESE,9.2,-,N/A,Fog,Fog,120,2013-09-27 09:30:00
11:00 AM,55.4,55.4,100,29.92,1.6,SE,8.1,-,N/A,,Mostly Cloudy,130,2013-09-27 10:00:00
11:30 AM,57.2,57.2,100,29.92,4.3,SE,9.2,-,N/A,,Mostly Cloudy,130,2013-09-27 10:30:00
12:00 PM,57.2,55.4,94,29.92,5.0,SE,9.2,-,N/A,,Mostly Cloudy,140,2013-09-27 11:00:00
12:30 PM,57.2,55.4,94,29.92,5.6,SSE,10.4,-,N/A,,Mostly Cloudy,160,2013-09-27 11:30:00
1:00 PM,59,56,87,29.92,6,SSE,8.9,,,,Mist,150,2013-09-27 12:00:00
1:00 PM,59.0,55.4,88,29.92,5.6,SSE,8.1,-,N/A,,Mostly Cloudy,150,2013-09-27 12:00:00
1:30 PM,59.0,55.4,88,29.92,6.2,SSE,9.2,-,N/A,,Mostly Cloudy,160,2013-09-27 12:30:00
2:00 PM,60.8,55.4,82,29.92,6.2,SSE,10.4,-,N/A,,Mostly Cloudy,150,2013-09-27 13:00:00
2:30 PM,60.8,57.2,88,29.89,6.2,SE,8.1,-,N/A,,Mostly Cloudy,140,2013-09-27 13:30:00
3:00 PM,62.6,57.2,82,29.89,6.2,SE,6.9,-,N/A,,Mostly Cloudy,140,2013-09-27 14:00:00
3:30 PM,60.8,57.2,88,29.89,6.2,ESE,6.9,-,N/A,,Mostly Cloudy,120,2013-09-27 14:30:00
4:00 PM,62.6,57.2,82,29.89,6.2,SE,6.9,-,N/A,,Mostly Cloudy,130,2013-09-27 15:00:00
4:30 PM,64.4,57.2,77,29.86,6.2,SE,6.9,-,N/A,,Mostly Cloudy,130,2013-09-27 15:30:00
5:00 PM,62.6,57.2,82,29.89,6.2,SE,8.1,-,N/A,,Scattered Clouds,130,2013-09-27 16:00:00
5:30 PM,62.6,57.2,82,29.86,6.2,SE,5.8,-,N/A,,Scattered Clouds,140,2013-09-27 16:30:00
6:00 PM,62.6,57.2,82,29.86,6.2,SE,5.8,-,N/A,,Scattered Clouds,130,2013-09-27 17:00:00
7:00 PM,60,58,90,29.86,19,ESE,6.7,,,,Scattered Clouds,120,2013-09-27 18:00:00